Station DISW3 - Devils Island, WI Image indicating link to RSS feed of recent meteorological observations for station DISW3


Conditions at DISW3 as of
(8:00 pm CDT on 07/22/2024)
0100 GMT on 07/23/2024:
     

Click on the graph icon in the table below to see a time series plot of the last five days of that observation.

5-day plot - Wind Direction Wind Direction (WDIR):ENE ( 70 deg true )
5-day plot - Wind Speed Wind Speed (WSPD): 14 kts
5-day plot - Wind Gust Wind Gust (GST): 17 kts
5-day plot - Atmospheric Pressure Atmospheric Pressure (PRES):29.99 in
5-day plot - Pressure Tendency Pressure Tendency (PTDY):+0.02 in ( Rising )
5-day plot - Air Temperature Air Temperature (ATMP): 64.6 °F
5-day plot - Dew Point Dew Point (DEWP): 62.8 °F
5-day plot - Wind Speed at 10 Meters Wind Speed at 10 meters (WSPD10M): 14 kts
5-day plot - Wind Speed at 20 Meters Wind Speed at 20 meters (WSPD20M): 14 kts
5-day plot -  Wind Speed, Wind Gust and Atmospheric Pressure Combined plot of Wind Speed, Gust, and Air Pressure
Continuous Winds
TIME
(CDT)
5-day plot - Wind Direction WDIR 5-day plot - Wind Speed WSPD
8:00 pmENE ( 66 deg ) 15 kts
7:50 pmENE ( 64 deg ) 15 kts
7:40 pmENE ( 61 deg ) 16 kts
7:30 pmENE ( 62 deg ) 15 kts
7:20 pmENE ( 65 deg ) 14 kts
7:10 pmENE ( 67 deg ) 13 kts
 
Peak gust during the measurement hour
TIME
(CDT)
5-day plot - Gust Direction GDR 5-day plot - Gust Speed GST
7:52 pmENE ( 60 deg ) 19 kts
Previous observations
TIME
(CDT)
5-day plot - Wind Direction
WDIR
 
5-day plot - Wind Speed
WSPD
kts
5-day plot - Wind Gust
GST
kts
5-day plot - Wave Height
WVHT
ft
5-day plot - Dominant Wave Period
DPD
sec
5-day plot - Average Wave Period
APD
sec
5-day plot - Mean Wave Direction
MWD
 
5-day plot - Atmospheric Pressure
PRES
in
5-day plot - Pressure Tendency
PTDY
in
5-day plot - Air Temperature
ATMP
°F
5-day plot - Water Temperature
WTMP
°F
5-day plot - Dew Point
DEWP
°F
5-day plot - Salinity
SAL
psu
5-day plot - Visibility
VIS
nmi
5-day plot - Tide (above MLLW)
TIDE
ft
2024-07-22 07:00 pmENE 13 16----29.98+0.00 64.8- 60.8---
2024-07-22 06:00 pmESE 12 13----29.98+0.01 63.9- 55.4---
2024-07-22 05:00 pmENE 13 15----29.97-0.02 64.9- 57.7---
2024-07-22 04:00 pmENE 13 15----29.97-0.02 65.7- 58.6---
2024-07-22 03:00 pm NE 14 16----29.97-0.02 64.8- 63.3---
2024-07-22 02:00 pmENE 11 12----29.98-0.02 65.1- 63.7---
2024-07-22 01:00 pm E 7 7----29.99-0.02 65.1- 61.9---
2024-07-22 12:00 pmENE 4 5----30.00-0.02 64.6- 60.8---
2024-07-22 11:00 amNNE 6 7----30.01-0.02 63.7- 60.6---
2024-07-22 10:00 am SW 4 6----30.02-0.01 67.8- 59.0---
2024-07-22 09:00 am SE 2 4----30.02-0.01 68.0- 58.5---
2024-07-22 08:00 am SE 2 3----30.03-0.02 66.2- 58.5---
2024-07-22 07:00 am S 4 5----30.03-0.02 64.2- 60.3---
2024-07-22 06:00 am SE 3 4----30.03-0.04 64.8- 59.0---
2024-07-22 05:00 amENE 3 3----30.04-0.04 64.8- 58.3---
2024-07-22 04:00 am NE 2 2----30.05-0.06 65.1- 58.5---
2024-07-22 03:00 am N 3 3----30.06-0.04 65.5- 56.1---
2024-07-22 02:00 am- 0 0----30.08-0.03 65.3- 55.2---
2024-07-22 01:00 am NW 2 2----30.11-0.01 65.5- 56.3---
2024-07-22 12:00 amESE 4 5----30.11-0.01 65.8- 53.8---
2024-07-21 11:00 pmESE 6 7----30.11+0.00 64.9- 54.7---
2024-07-21 10:00 pmESE 7 8----30.12+0.00 65.7- 54.7---
2024-07-21 09:00 pmESE 8 9----30.11-0.02 66.4- 53.4---